NOAA 16 DEB, 41077

Orbit data source: Space-Track

NOAA 16 DEB, 41077 is space debris in SSO originally from a launch on Thu, 21 Sep 2000 UTC launched from the Air Force Western Test Range (AFWTR). Debris objects in space refer to the collection of defunct objects orbiting the Earth. Examples of debris include non-operational satellites, rocket bodies, and fragments generated from explosions, collisions, or faulty payload assembly.

Loading next visibility...
NOAA 16 DEB details
Identifier
41077, 2000-055AL
Orbit
SSO
Last TLE update10 hours ago
Origin
Flag of USNOAA (US)
ManufacturerUnknown
MissionSpacecraft
Bus & MotorUnknown
MassUnknown
Launch date (UTC)
2000-09-21 (24 years ago)
Launch vehicleUnknown
Launch site
Air Force Western Test Range (AFWTR)
Object type
Payload
Rocket body
Debris
Shape & HBRUnknown
Radar Cross SectionSmall (<0.1 m²)

Expand to show TLE details & history

TLE from 10 hours ago
0 NOAA 16 DEB
1 41077U 00055AL  24361.01421025  .00001304  00000-0  98005-3 0  9993
2 41077  98.8413  26.2794 0113607 225.2979 133.8886 13.93127554461286
Epoch: 2024-12-26T00:20Z
Definitive object data (Epoch: 2024-12-26T00:20:27.765Z)
Latitude-0.00009°
Longitude-73.83596°
Altitude978.52 km
Speed7.333 km/s
True Right ascension01h 45m 07s
True Declination0° 00' 00"
Sunlit
Object was in daylight at TLE epoch
Visualization TLE readout
Latitude10.92635°
Longitude-75.13389°
Altitude989.049 km
Speed7.323 km/s
Apparent Right ascension00h 14m 54s
Apparent Declination-13° 50' 59"
Sunlit
Object is in daylight
Visualization observer readout
Local Sidereal Time10:05:26
Azimuth303.392° NW
Elevation-51.498°
Doppler factor1
Orbital elements
Apogee altitude997.745 km
Perigee altitude832.037 km
Semi-major axis7,293.028 km
Eccentricity0.0113607
Inclination98.8413°
RAAN26.2794°
Arg. of periapsis225.2979°
True anomaly134.81763°
Mean anomaly133.8886°
Eccentric anomaly134.35403°
Mean motion3.48483 °/min
BSTAR0.00098005
Orbital period103.3 mins
Loading maneuver chart data...
Loading historical data...
Loading historical data...
Loading historical data...
Loading historical data...
Loading historical data...
Loading historical data...
Loading historical data...

NOAA 16 DEB Visibility forecast

Observer location: undefined°, undefined

Span
Click to sort rows by Start time (UTC) header in descending order
Start Az.
Max El. time (UTC)
Max El. Az.
Max El.
End time (UTC)
End Az.
11 mins2024-12-26 14:43:12.546Z16.275° NNE2024-12-26 14:48:12.546Z55.821° ENE44.028°2024-12-26 14:54:12.546Z190.776° SSW
4 mins2024-12-26 16:28:12.546Z320.529° NNW2024-12-26 16:30:12.546Z297.354° NW14.975°2024-12-26 16:32:12.546Z275.045° WNW
8 mins2024-12-27 00:38:12.546Z105.109° ESE2024-12-27 00:41:12.546Z70.101° E22.594°2024-12-27 00:46:12.546Z13.491° NNE
10 mins2024-12-27 02:19:12.546Z189.156° SSW2024-12-27 02:23:12.546Z256.451° W39.376°2024-12-27 02:29:12.546Z336.837° NNW
|